Stations météo

réclame
Mon MeteoGroup
Abbeville, France (7005): Température de l'air & dewpoint: 16.10.2018 16:00:00 - 22.10.2018 16:00:00 (CEST)Abbeville, France (7005): Température de l'air 5cm: 16.10.2018 16:00:00 - 22.10.2018 16:00:00 (CEST)Abbeville, France (7005): Température de l'air -20cm & Température de l'air -100cm: 16.10.2018 16:00:00 - 22.10.2018 16:00:00 (CEST)Abbeville, France (7005): Vitesse du vent & gusts: 16.10.2018 16:00:00 - 22.10.2018 16:00:00 (CEST)Abbeville, France (7005): Direction du vent: 16.10.2018 16:00:00 - 22.10.2018 16:00:00 (CEST)Abbeville, France (7005): reduced air pressure: 16.10.2018 16:00:00 - 22.10.2018 16:00:00 (CEST)Abbeville, France (7005): visibility: 16.10.2018 16:00:00 - 22.10.2018 16:00:00 (CEST)Abbeville, France (7005): Ensoleillement: 16.10.2018 16:00:00 - 22.10.2018 16:00:00 (CEST)Abbeville, France (7005): Quantités de précipitations: 16.10.2018 16:00:00 - 22.10.2018 16:00:00 (CEST)
Date & Time tt [°C] td [°C] tt 5cm [°C] tt -20cm [°C] tt -100cm [°C] ff [km/h] ff [knt] fx [km/h] fx [knt] dd ppp [hPa] vv [km] sd [min] rr [mm]
22.10.2018 16:00:00 14,4 6,0 14,2 13,0 14,7 20 11 35 19 NNE 1034,7 20 42 0,0
22.10.2018 15:00:00 14,7 6,3 16,9 12,8 14,7 22 12 35 19 NNE 1034,3 20 57 0,0
22.10.2018 14:00:00 14,4 6,7 15,4 12,7 14,7 22 12 37 20 NNE 1034,2 19 45 0,0
22.10.2018 13:00:00 14,5 6,8 15,0 12,6 14,7 23 13 39 21 NNE 1034,4 20 32 0,0
22.10.2018 12:00:00 13,6 7,8 13,8 12,6 14,8 27 14 39 21 NNE 1034,2 20 4 0,0
22.10.2018 11:00:00 13,2 9,3 12,7 12,5 14,8 19 11 32 17 N 1033,7 20 2 0,0
22.10.2018 10:00:00 12,6 10,0 11,8 12,5 14,8 19 11 34 19 N 1032,9 20 0 0,0
22.10.2018 09:00:00 12,3 10,4 11,7 12,5 14,8 21 11 38 20 N 1032,1 18 0 0,0
22.10.2018 08:00:00 12,4 10,8 11,8 12,5 14,8 23 12 36 19 N 1031,0 20 0 0,0
22.10.2018 07:00:00 12,5 11,6 12,2 12,4 14,8 19 11 33 18 N 1030,3 20 0 0,0
22.10.2018 06:00:00 13,0 12,5 10,8 12,5 14,8 19 11 29 16 N 1029,5 5 0 0,2
22.10.2018 05:00:00 10,9 10,4 9,3 12,5 14,8 7 4 10 6 NNW 1029,0 1,8 0 0,0
22.10.2018 04:00:00 9,6 9,1 8,0 12,6 14,8 8 5 10 5 NNW 1028,8 0,2 0 0,0
22.10.2018 03:00:00 8,1 7,5 5,8 12,7 14,8 3 2 5 3 NW 1028,7 0,2 0 0,0
22.10.2018 02:00:00 8,4 7,6 4,3 12,9 14,8 4 2 4 2 WNW 1028,4 0,1 0 0,0
22.10.2018 01:00:00 10,0 9,4 6,2 13,0 14,8 4 2 6 3 SW 1028,0 1,0 0 0,0
22.10.2018 00:00:00 9,9 9,1 6,2 13,2 14,8 5 3 6 4 S 1028,0 0,2 0 0,0
21.10.2018 23:00:00 10,2 9,4 5,6 13,4 14,9 3 2 9 5 NNW 1027,8 0,1 0 0,0
21.10.2018 22:00:00 9,2 8,0 5,8 13,5 14,9 6 3 10 6 NNW 1027,7 0,9 0 0,0
21.10.2018 21:00:00 10,2 8,6 7,6 13,6 14,9 9 5 10 6 W 1027,1 3,3 0 0,0
21.10.2018 20:00:00 11,7 9,6 8,2 13,6 14,9 6 4 10 6 WNW 1027,0 7 0 0,0
21.10.2018 19:00:00 12,5 9,5 10,8 13,5 14,9 9 5 11 6 WNW 1027,0 9 0 0,0
21.10.2018 18:00:00 15,9 9,8 17,8 13,3 14,9 8 4 14 8 W 1026,7 19 33 0,0
21.10.2018 17:00:00 17,1 9,8 19,8 13,0 14,9 10 5 18 10 W 1027,0 18 50 0,0
21.10.2018 16:00:00 18,2 7,6 23,1 12,6 14,8 3 2 10 6 N 1027,5 20 60 0,0
21.10.2018 15:00:00 17,5 6,4 22,2 12,3 14,9 4 2 11 6 N 1027,8 18 60 0,0
21.10.2018 14:00:00 16,5 7,7 21,6 12,0 14,9 5 3 14 8 NE 1027,9 14 60 0,0
21.10.2018 13:00:00 15,5 7,8 20,7 11,8 14,9 3 1 6 4 NE 1028,5 13 60 0,0
21.10.2018 12:00:00 13,6 7,6 17,4 11,7 14,9 3 2 5 3 NNE 1029,0 8 60 0,0
21.10.2018 11:00:00 11,7 8,4 11,9 11,7 14,9 3 1 7 4 SE 1029,3 9 60 0,0
21.10.2018 10:00:00 8,1 7,0 4,6 11,8 14,9 4 2 6 3 SE 1029,4 7 60 0,0
21.10.2018 09:00:00 5,6 4,7 2,5 11,9 15,0 0 0 5 3 N 1029,1 4,4 11 0,0
21.10.2018 08:00:00 5,7 4,3 4,1 12,0 15,0 2 1 11 6 E 1028,9 4,1 0 0,0
21.10.2018 07:00:00 5,8 5,1 4,4 12,1 15,0 4 2 11 6 N 1029,0 3,0 0 0,0
21.10.2018 06:00:00 6,1 5,2 4,6 12,2 15,0 6 3 9 5 SE 1029,1 3,4 0 0,2
21.10.2018 05:00:00 6,0 5,1 4,7 12,4 15,0 8 4 9 5 SE 1029,6 3,7 0 0,0
21.10.2018 04:00:00 6,6 5,7 4,7 12,5 15,0 7 4 9 5 ESE 1030,3 4,0 0 0,0
21.10.2018 03:00:00 7,0 6,3 3,4 12,6 15,0 8 4 9 5 ENE 1030,6 4,7 0 0,0
21.10.2018 02:00:00 6,7 5,3 4,0 12,7 15,0 3 2 8 5 ESE 1030,8 4,5 0 0,0
21.10.2018 01:00:00 8,1 7,2 5,9 12,9 15,0 6 3 9 5 E 1031,0 6 0 0,0
21.10.2018 00:00:00 8,6 7,5 5,3 13,1 15,0 7 4 8 4 NE 1031,4 6 0 0,0
20.10.2018 23:00:00 7,7 6,2 4,7 13,2 15,0 5 3 8 4 N 1031,4 0,8 0 0,0
20.10.2018 22:00:00 9,5 8,1 6,2 13,3 15,0 7 4 8 4 E 1031,2 12 0 0,0
20.10.2018 21:00:00 9,4 8,2 5,8 13,4 15,0 6 3 10 5 NNE 1031,3 12 0 0,0
20.10.2018 20:00:00 9,2 7,0 6,1 13,5 15,0 5 3 9 5 NNW 1031,1 12 0 0,0
20.10.2018 19:00:00 11,6 7,5 8,6 13,4 15,0 6 3 11 6 NW 1030,6 20 2 0,0
20.10.2018 18:00:00 15,2 8,9 18,0 13,2 15,0 5 3 8 4 N 1030,4 20 25 0,0
20.10.2018 17:00:00 15,9 8,1 19,9 12,9 15,0 7 4 13 7 NNE 1030,8 20 60 0,0
20.10.2018 16:00:00 15,9 8,1 20,1 12,6 15,0 8 5 15 8 E 1031,1 20 60 0,0
20.10.2018 15:00:00 15,5 8,5 18,4 12,3 15,0 5 3 16 9 ENE 1031,3 19 60 0,0
20.10.2018 14:00:00 14,8 8,5 18,5 12,0 15,0 11 6 19 10 ENE 1031,8 20 60 0,0
20.10.2018 13:00:00 14,0 9,0 15,6 11,8 15,0 7 4 12 7 ENE 1032,3 14 56 0,0
20.10.2018 12:00:00 12,4 9,2 13,4 11,8 15,1 5 3 8 4 E 1032,5 11 49 0,0
20.10.2018 11:00:00 9,9 8,7 11,1 11,8 15,1 4 2 6 3 NE 1032,6 8 41 0,0
20.10.2018 10:00:00 7,7 7,1 4,0 11,9 15,1 3 2 5 3 NNE 1032,4 4,7 58 0,0
20.10.2018 09:00:00 4,8 4,1 2,5 12,1 15,1 4 2 7 4 E 1031,4 4,4 10 0,0
20.10.2018 08:00:00 6,3 5,4 2,2 12,2 15,1 5 3 10 5 E 1030,6 4,5 0 0,0
20.10.2018 07:00:00 6,1 5,4 4,6 12,3 15,1 8 4 10 6 E 1030,2 4,2 0 0,2
20.10.2018 06:00:00 6,2 5,3 3,4 12,5 15,1 7 4 9 5 ENE 1029,8 7 0 0,0
20.10.2018 05:00:00 6,9 6,2 2,4 12,7 15,1 5 3 7 4 E 1029,6 10 0 0,0
20.10.2018 04:00:00 5,9 5,0 1,6 12,9 15,1 3 1 8 5 N 1029,2 6 0 0,0
20.10.2018 03:00:00 6,7 6,0 2,2 13,1 15,1 9 5 12 7 ENE 1028,8 15 0 0,0
20.10.2018 02:00:00 5,4 4,2 2,1 13,3 15,1 7 4 11 6 N 1029,0 7 0 0,0
20.10.2018 01:00:00 5,4 4,0 2,1 13,5 15,1 9 5 11 6 NNW 1028,7 9 0 0,0
20.10.2018 00:00:00 6,6 4,4 3,2 13,7 15,1 8 4 10 5 N 1028,4 15 0 0,0
19.10.2018 23:00:00 7,8 5,8 4,0 13,8 15,1 8 4 12 6 NNE 1028,1 20 0 0,0
19.10.2018 22:00:00 9,1 6,2 5,9 14,0 15,1 11 6 15 8 N 1027,8 20 0 0,0
19.10.2018 21:00:00 9,6 6,1 6,6 14,1 15,1 9 5 15 8 N 1027,3 20 0 0,0
19.10.2018 20:00:00 11,1 6,6 8,7 14,1 15,1 10 5 18 10 NNE 1026,5 20 0 0,0
19.10.2018 19:00:00 12,5 7,6 10,2 14,0 15,1 11 6 18 10 N 1025,6 20 0 0,0
19.10.2018 18:00:00 15,0 8,2 16,3 13,8 15,1 12 7 21 11 NNE 1025,2 20 33 0,0
19.10.2018 17:00:00 15,8 8,8 17,3 13,6 15,1 12 6 23 12 NNE 1024,7 20 48 0,0
19.10.2018 16:00:00 16,4 9,1 16,6 13,4 15,1 11 6 27 14 NE 1024,4 20 46 0,0
19.10.2018 15:00:00 16,4 10,0 19,5 13,1 15,1 16 8 25 14 NNE 1024,5 17 56 0,0
19.10.2018 14:00:00 15,8 10,5 18,3 12,9 15,1 16 9 24 13 NE 1024,6 15 60 0,0
19.10.2018 13:00:00 14,6 10,6 17,8 12,7 15,1 14 8 30 16 NE 1025,0 8 58 0,0
19.10.2018 12:00:00 13,5 11,0 16,5 12,6 15,2 12 7 18 10 NNE 1025,2 7 60 0,0
19.10.2018 11:00:00 11,4 10,1 10,8 12,7 15,1 8 4 12 6 NNE 1025,2 8 60 0,0
19.10.2018 10:00:00 9,2 8,6 5,1 12,8 15,1 6 3 9 5 ENE 1024,5 8 36 0,0
19.10.2018 09:00:00 6,8 6,1 2,8 12,9 15,2 5 3 8 4 N 1024,7 2,0 3 0,0
19.10.2018 08:00:00 6,1 5,4 3,2 13,1 15,2 4 2 5 3 N 1024,3 0,3 0 0,0
19.10.2018 07:00:00 6,6 6,0 2,7 13,3 15,1 4 2 8 4 NNE 1024,0 1,0 0 0,0
19.10.2018 06:00:00 6,3 5,4 3,4 13,5 15,1 4 2 5 3 NNW 1024,1 0,3 0 0,0
19.10.2018 05:00:00 6,8 5,9 3,5 13,6 15,2 3 2 9 5 NNE 1024,1 0,4 0 0,2
19.10.2018 04:00:00 7,0 5,8 3,5 13,8 15,2 7 4 8 4 N 1024,1 4,8 0 0,0
19.10.2018 03:00:00 8,2 6,8 4,4 13,9 15,2 0 0 4 2 N 1024,3 11 0 0,0
19.10.2018 02:00:00 9,3 7,6 7,1 14,1 15,2 4 2 11 6 ENE 1024,4 19 0 0,0
19.10.2018 01:00:00 9,6 7,9 7,5 14,2 15,1 8 5 11 6 NNE 1024,4 20 0 0,0
19.10.2018 00:00:00 10,0 8,1 7,8 14,3 15,1 9 5 13 7 NNE 1024,7 20 0 0,0
18.10.2018 23:00:00 10,5 8,4 8,5 14,4 15,2 9 5 15 8 NNE 1024,7 20 0 0,0
18.10.2018 22:00:00 11,1 8,8 9,3 14,5 15,2 11 6 17 9 N 1024,7 20 0 0,0
18.10.2018 21:00:00 11,6 9,0 9,9 14,6 15,2 12 7 19 10 N 1024,4 20 0 0,0
18.10.2018 20:00:00 12,4 9,6 10,7 14,6 15,2 12 6 29 15 NNE 1024,1 20 0 0,0
18.10.2018 19:00:00 13,4 10,2 12,0 14,6 15,2 15 8 24 13 N 1023,7 20 0 0,0
18.10.2018 18:00:00 14,8 10,6 14,6 14,5 15,2 18 10 31 17 NNE 1023,6 20 0 0,0
18.10.2018 17:00:00 16,0 10,7 16,5 14,4 15,2 16 9 29 16 NNE 1023,5 20 5 0,0
18.10.2018 16:00:00 16,0 10,3 16,6 14,2 15,1 17 9 31 17 NNE 1023,7 20 0 0,0
18.10.2018 15:00:00 16,0 11,4 16,2 14,1 15,2 16 9 31 17 NNE 1024,1 20 10 0,0
18.10.2018 14:00:00 15,3 11,5 15,7 13,9 15,1 17 9 29 16 NE 1024,4 13 6 0,0
18.10.2018 13:00:00 15,2 11,8 16,0 13,8 15,2 16 8 33 18 NE 1024,5 16 7 0,0
18.10.2018 12:00:00 14,6 12,8 14,6 13,7 15,1 16 9 32 18 NNE 1024,6 12 20 0,0
18.10.2018 11:00:00 12,8 12,2 13,6 13,8 15,1 10 5 16 8 NNE 1024,4 6 23 0,0
18.10.2018 10:00:00 11,0 10,5 7,4 13,9 15,1 4 2 6 3 NW 1024,1 3,9 60 0,0
18.10.2018 09:00:00 8,3 7,7 6,7 14,0 15,1 4 2 5 3 NNW 1023,8 2,4 3 0,0
18.10.2018 08:00:00 8,6 8,2 5,2 14,2 15,2 0 0 10 6 N 1023,5 0,7 0 0,0
18.10.2018 07:00:00 7,4 6,8 5,0 14,3 15,2 6 3 8 4 NNW 1023,4 0,1 0 0,0
18.10.2018 06:00:00 7,5 6,9 5,4 14,5 15,2 6 3 8 4 N 1023,2 0,1 0 0,0
18.10.2018 05:00:00 7,8 7,0 5,4 14,7 15,2 6 3 9 5 N 1023,2 0,2 0 0,0
18.10.2018 04:00:00 8,8 8,0 5,7 14,9 15,2 4 2 6 4 N 1023,1 0,2 0 0,0
18.10.2018 03:00:00 9,2 8,3 6,1 15,1 15,2 5 3 7 4 N 1022,9 0,9 0 0,0
18.10.2018 02:00:00 9,5 8,6 6,5 15,3 15,2 5 3 9 5 N 1022,8 3,5 0 0,2
18.10.2018 01:00:00 10,1 9,2 6,5 15,5 15,2 5 3 9 5 NNE 1022,5 7 0 0,0
18.10.2018 00:00:00 10,2 9,0 6,4 15,7 15,1 3 2 8 5 N 1022,5 7 0 0,0
17.10.2018 23:00:00 11,0 9,7 7,6 15,9 15,1 5 3 8 5 NNE 1022,3 10 0 0,0
17.10.2018 22:00:00 11,3 9,9 8,4 16,0 15,1 7 4 10 5 NNE 1021,8 14 0 0,0
17.10.2018 21:00:00 12,5 10,9 9,9 16,2 15,1 9 5 13 7 N 1021,2 20 0 0,0
17.10.2018 20:00:00 12,7 10,4 9,8 16,2 15,1 8 4 13 7 NNW 1020,5 20 0 0,0
17.10.2018 19:00:00 14,0 10,8 11,9 16,2 15,1 10 5 16 9 NNW 1019,8 20 0 0,0
17.10.2018 18:00:00 16,9 12,4 18,6 16,0 15,1 11 6 16 8 NNW 1019,0 20 21 0,0
17.10.2018 17:00:00 17,5 11,1 19,7 15,9 15,1 7 4 12 7 NNW 1019,1 20 0 0,0
17.10.2018 16:00:00 18,0 11,8 21,1 15,6 15,1 7 4 10 6 N 1019,1 20 0 0,0
17.10.2018 15:00:00 18,7 11,3 20,0 15,3 15,1 3 2 9 5 NNE 1019,2 20 33 0,0
17.10.2018 14:00:00 17,4 12,3 21,9 15,0 15,1 4 2 10 5 WNW 1019,5 19 35 0,0
17.10.2018 13:00:00 17,4 13,5 20,0 14,8 15,1 5 3 10 5 N 1019,7 16 44 0,0
17.10.2018 12:00:00 16,0 14,4 14,3 14,7 15,1 0 0 6 3 N 1020,1 8 27 0,0
17.10.2018 11:00:00 12,6 11,8 13,5 14,8 15,1 6 3 9 5 SE 1020,1 8 49 0,0
17.10.2018 10:00:00 11,4 10,9 8,7 14,9 15,1 4 2 9 5 SE 1019,8 6 51 0,0
17.10.2018 09:00:00 9,3 8,7 7,8 15,0 15,1 8 4 10 5 E 1019,6 0,2 8 0,0
17.10.2018 08:00:00 9,5 8,9 8,6 15,2 15,1 6 4 10 5 SE 1019,4 0,6 0 0,0
17.10.2018 07:00:00 10,1 9,5 8,6 15,3 15,1 4 2 8 5 SE 1019,2 2,8 0 0,0
17.10.2018 06:00:00 10,6 10,0 9,1 15,4 15,1 4 2 9 5 SE 1018,8 3,5 0 0,0
17.10.2018 05:00:00 10,7 10,1 9,6 15,5 15,1 7 4 8 5 SE 1018,6 3,2 0 0,0
17.10.2018 04:00:00 11,8 11,2 10,3 15,7 15,1 3 2 8 5 SSE 1018,8 3,9 0 0,2
17.10.2018 03:00:00 11,1 10,5 9,8 15,9 15,1 6 3 8 4 SSE 1018,9 1,1 0 0,0
17.10.2018 02:00:00 12,4 11,8 11,2 16,0 15,1 5 3 8 5 SE 1018,9 0,2 0 0,0
17.10.2018 01:00:00 12,8 12,0 11,3 16,1 15,1 4 2 6 4 S 1019,0 1,3 0 0,0
17.10.2018 00:00:00 13,1 12,3 11,5 16,3 15,1 4 2 5 3 S 1019,0 2,5 0 0,0
16.10.2018 23:00:00 13,8 13,0 11,0 16,5 15,1 4 2 5 3 S 1019,0 2,7 0 0,0
16.10.2018 22:00:00 13,9 12,9 10,7 16,6 15,1 3 1 4 2 W 1018,8 3,8 0 0,0
16.10.2018 21:00:00 13,8 12,5 11,4 16,7 15,1 3 1 13 7 NW 1018,8 3,9 0 0,0
16.10.2018 20:00:00 15,2 13,6 14,3 16,7 15,1 13 7 32 18 WNW 1018,5 8 0 0,0
16.10.2018 19:00:00 17,7 12,2 16,4 16,6 15,1 19 10 32 17 WNW 1017,8 20 0 0,0
16.10.2018 18:00:00 22,5 11,2 24,9 16,4 15,1 5 3 17 9 S 1016,9 20 46 0,0
16.10.2018 17:00:00 23,4 10,8 26,6 16,2 15,1 9 5 19 10 S 1016,7 20 60 0,0
16.10.2018 16:00:00 24,1 11,4 27,6 15,9 15,1 6 3 19 10 S 1016,9 20 60 0,0

tt = Température de l'air
td = dewpoint
tt 5cm = Température de l'air 5cm
tt -20cm = Température de l'air -20cm
tt -100cm = Température de l'air -100cm
ff = Vitesse du vent
fx = gusts
dd = Direction du vent
ppp = reduced air pressure
vv = visibility
sd = Ensoleillement
rr = Quantités de précipitations

stations d'obs. à proximité